TimeCST,TemperatureF,Dew PointF,Humidity,Sea Level PressureIn,VisibilityMPH,Wind Direction,Wind SpeedMPH,Gust SpeedMPH,PrecipitationIn,Events,Conditions,WindDirDegrees,DateUTC
12:53 AM,8.1,5.0,87,30.11,10.0,NW,8.1,-,N/A,,Clear,310,2013-01-05 06:53:00
1:53 AM,9.0,5.0,84,30.09,10.0,NW,4.6,-,N/A,,Clear,320,2013-01-05 07:53:00
2:53 AM,8.1,3.9,83,30.09,10.0,NW,3.5,-,N/A,,Clear,310,2013-01-05 08:53:00
3:53 AM,9.0,6.1,88,30.07,10.0,NW,3.5,-,N/A,,Clear,310,2013-01-05 09:53:00
4:53 AM,10.0,6.1,84,30.09,10.0,WNW,6.9,-,N/A,,Clear,300,2013-01-05 10:53:00
5:53 AM,10.0,6.1,84,30.11,10.0,West,4.6,-,N/A,,Clear,280,2013-01-05 11:53:00
6:53 AM,8.6,5.0,85,30.02,10.0,WNW,5.8,-,N/A,,Clear,300,2013-01-05 12:53:00
7:53 AM,10.9,6.1,81,30.19,10.0,WNW,9.2,-,N/A,,Clear,300,2013-01-05 13:53:00
8:53 AM,12.0,7.0,80,30.24,10.0,NW,6.9,-,N/A,,Clear,310,2013-01-05 14:53:00
9:53 AM,21.0,14.0,74,30.24,10.0,WNW,8.1,-,N/A,,Clear,300,2013-01-05 15:53:00
10:53 AM,28.0,17.1,63,30.25,10.0,WNW,11.5,-,N/A,,Clear,300,2013-01-05 16:53:00
11:53 AM,30.9,19.0,61,30.25,10.0,West,16.1,-,N/A,,Clear,270,2013-01-05 17:53:00
12:53 PM,37.0,23.0,57,30.22,10.0,WNW,10.4,-,N/A,,Clear,290,2013-01-05 18:53:00
1:53 PM,41.0,25.0,53,30.21,10.0,NW,19.6,26.5,N/A,,Clear,310,2013-01-05 19:53:00
2:53 PM,41.0,25.0,53,30.22,10.0,NW,17.3,-,N/A,,Clear,310,2013-01-05 20:53:00
3:53 PM,39.0,25.0,57,30.24,10.0,NW,16.1,-,N/A,,Clear,310,2013-01-05 21:53:00
4:53 PM,37.4,24.8,60,30.16,10.0,WNW,12.7,-,N/A,,Clear,300,2013-01-05 22:53:00
5:53 PM,32.0,23.0,69,30.30,10.0,NW,9.2,-,N/A,,Clear,310,2013-01-05 23:53:00
6:53 PM,28.0,21.0,75,30.33,10.0,WNW,6.9,-,N/A,,Clear,300,2013-01-06 00:53:00
7:53 PM,21.9,18.0,85,30.36,10.0,NW,6.9,-,N/A,,Clear,310,2013-01-06 01:53:00
8:53 PM,21.0,18.0,88,30.36,10.0,WNW,5.8,-,N/A,,Clear,300,2013-01-06 02:53:00
9:53 PM,19.9,16.0,85,30.36,10.0,NW,6.9,-,N/A,,Clear,320,2013-01-06 03:53:00
10:53 PM,17.1,14.0,88,30.36,10.0,WNW,8.1,-,N/A,,Clear,290,2013-01-06 04:53:00
11:53 PM,15.1,10.9,84,30.37,10.0,West,5.8,-,N/A,,Clear,280,2013-01-06 05:53:00